Powrót do katalogu

USA 482

AktywnyMilitariaVLEO
NORAD 62551·PAYLOAD·🇺🇸 United States

Wystrzelony Jan 10, 2025 z Vandenberg Space Force Base

Loading…

Następne Przeloty (najbliższe 24 godziny)

TLE

NieaktualneSource: Mike McCants

Epoka: Aug 26, 2026, 02:23 UTC

1 62551U 25005V   26238.09973037 0.00000000  00000-0  00000-0 0    03
2 62551  70.0280 226.5670 0004000 195.8720 164.1280 14.96713478    04

Śledź USA 482 w czasie rzeczywistym z AllMySat

Download on the App Store